Climatologie pour Saint-Brevin les Pins
Jour • Résumé pour mai 11, 2017 Système :  Métrique    Anglais   Mixte
« - 1 jour
+ 1 jour »
Jour Semaine Mois Année Personnalisé
  Maximum : Minimum : Moyenne :
Température sous abri : 16.7 °C 12.1 °C 14 °C
Point de rosée : 15.4 °C 11.2 °C 12.9 °C
Humidité : 97 % 86 % 93 %
Vitesse du vent : 24.1 km/h 0.0 km/h 6.1 km/h
Rafale : 24.1 km/h - -
Direction :- - South
Pression : 997.9 hPa 992.4 hPa -
Précipitations : 6.6 mm    
Historical Graphs
 
 
Tableau de données pour mai 11, 2017
Heure Tempé Pt rosée Pression Vent Vitesse Rafale Humidité Taux pluie (/hr) Soleil
00:00 12.8 °C 11.7 °C 997.9 hPa Calm   4.8 km/h 93 % 0.0 mm 0 W/m2
00:10 13.2 °C 11.9 °C 997.5 hPa Calm   4.8 km/h 92 % 0.0 mm 0 W/m2
00:15 13.2 °C 11.7 °C 997.9 hPa Calm   4.8 km/h 91 % 0.0 mm 0 W/m2
00:20 13.2 °C 11.8 °C 997.9 hPa Calm   3.2 km/h 91 % 0.0 mm 0 W/m2
00:25 13.3 °C 11.9 °C 997.5 hPa Calm   3.2 km/h 91 % 0.0 mm 0 W/m2
00:30 13.3 °C 11.9 °C 997.5 hPa East 1.6 km/h 3.2 km/h 91 % 0.0 mm 0 W/m2
00:35 13.3 °C 11.8 °C 997.5 hPa Calm   3.2 km/h 91 % 0.0 mm 0 W/m2
00:40 13.3 °C 11.9 °C 997.2 hPa Calm   3.2 km/h 91 % 0.0 mm 0 W/m2
00:45 13.2 °C 11.8 °C 997.2 hPa Calm   3.2 km/h 91 % 0.0 mm 0 W/m2
00:50 13.3 °C 11.9 °C 997.2 hPa East 3.2 km/h 4.8 km/h 91 % 0.0 mm 0 W/m2
00:55 13.4 °C 12.0 °C 997.2 hPa East 1.6 km/h 4.8 km/h 91 % 0.0 mm 0 W/m2
01:00 13.5 °C 12.1 °C 997.2 hPa Calm   4.8 km/h 91 % 0.0 mm 0 W/m2
01:05 13.5 °C 12.1 °C 997.2 hPa Calm   4.8 km/h 91 % 0.0 mm 0 W/m2
01:10 13.4 °C 12.0 °C 997.2 hPa Calm   3.2 km/h 91 % 0.0 mm 0 W/m2
01:15 13.4 °C 12.2 °C 997.2 hPa Calm   3.2 km/h 92 % 0.0 mm 0 W/m2
01:20 13.4 °C 12.2 °C 996.8 hPa East 3.2 km/h 3.2 km/h 92 % 0.0 mm 0 W/m2
01:25 13.5 °C 12.2 °C 996.8 hPa ESE 1.6 km/h 4.8 km/h 92 % 0.0 mm 0 W/m2
01:30 13.6 °C 12.5 °C 996.8 hPa Calm   4.8 km/h 93 % 0.0 mm 0 W/m2
01:35 13.7 °C 12.6 °C 996.8 hPa Calm   3.2 km/h 93 % 0.0 mm 0 W/m2
01:40 13.7 °C 12.6 °C 996.5 hPa Calm   4.8 km/h 93 % 0.0 mm 0 W/m2
01:45 13.6 °C 12.4 °C 996.5 hPa ESE 1.6 km/h 8.0 km/h 93 % 0.0 mm 0 W/m2
01:50 13.4 °C 12.3 °C 996.5 hPa Calm   8.0 km/h 93 % 0.0 mm 0 W/m2
01:55 13.5 °C 12.6 °C 996.5 hPa Calm   4.8 km/h 94 % 0.0 mm 0 W/m2
02:00 13.5 °C 12.6 °C 996.5 hPa ESE 1.6 km/h 4.8 km/h 94 % 0.0 mm 0 W/m2
02:05 13.4 °C 12.5 °C 996.5 hPa ESE 3.2 km/h 4.8 km/h 94 % 0.0 mm 0 W/m2
02:10 13.5 °C 12.6 °C 996.2 hPa Calm   4.8 km/h 94 % 0.0 mm 0 W/m2
02:15 13.4 °C 12.5 °C 996.2 hPa ESE 3.2 km/h 4.8 km/h 94 % 0.0 mm 0 W/m2
02:20 13.4 °C 12.5 °C 996.2 hPa Calm   4.8 km/h 94 % 0.0 mm 0 W/m2
02:25 13.4 °C 12.7 °C 996.2 hPa ESE 1.6 km/h 6.4 km/h 95 % 0.0 mm 0 W/m2
02:30 13.5 °C 12.7 °C 996.2 hPa ESE 3.2 km/h 6.4 km/h 95 % 0.0 mm 0 W/m2
02:35 13.4 °C 12.7 °C 996.2 hPa ESE 1.6 km/h 6.4 km/h 95 % 0.0 mm 0 W/m2
02:40 13.4 °C 12.4 °C 996.2 hPa Calm   4.8 km/h 94 % 0.0 mm 0 W/m2
02:45 13.4 °C 12.6 °C 995.8 hPa SE 1.6 km/h 6.4 km/h 95 % 0.0 mm 0 W/m2
02:50 13.3 °C 12.5 °C 995.8 hPa SE 3.2 km/h 6.4 km/h 95 % 0.0 mm 0 W/m2
02:55 13.3 °C 12.5 °C 995.8 hPa ESE 1.6 km/h 11.3 km/h 95 % 0.0 mm 0 W/m2
03:00 13.2 °C 12.4 °C 995.5 hPa ESE 3.2 km/h 11.3 km/h 95 % 0.0 mm 0 W/m2
03:05 13.1 °C 12.3 °C 995.5 hPa SE 4.8 km/h 8.0 km/h 95 % 0.0 mm 0 W/m2
03:10 13.0 °C 12.2 °C 995.5 hPa ESE 4.8 km/h 8.0 km/h 95 % 0.0 mm 0 W/m2
03:15 12.9 °C 12.1 °C 995.5 hPa ESE 1.6 km/h 8.0 km/h 95 % 0.0 mm 0 W/m2
03:20 12.8 °C 12.1 °C 995.5 hPa ESE 3.2 km/h 8.0 km/h 95 % 0.0 mm 0 W/m2
03:25 12.7 °C 11.9 °C 995.1 hPa Calm   8.0 km/h 95 % 0.0 mm 0 W/m2
03:30 12.7 °C 11.9 °C 995.1 hPa ESE 3.2 km/h 8.0 km/h 95 % 0.0 mm 0 W/m2
03:35 12.7 °C 11.9 °C 995.1 hPa Calm   9.7 km/h 95 % 0.0 mm 0 W/m2
03:40 12.6 °C 11.8 °C 995.1 hPa East 4.8 km/h 9.7 km/h 95 % 0.0 mm 0 W/m2
03:45 12.6 °C 11.8 °C 995.1 hPa ESE 4.8 km/h 8.0 km/h 95 % 0.0 mm 0 W/m2
03:50 12.6 °C 11.9 °C 994.8 hPa SE 3.2 km/h 8.0 km/h 96 % 0.0 mm 0 W/m2
03:55 12.5 °C 11.9 °C 994.8 hPa ESE 6.4 km/h 11.3 km/h 96 % 0.0 mm 0 W/m2
04:00 12.6 °C 11.9 °C 994.8 hPa ESE 3.2 km/h 11.3 km/h 96 % 0.0 mm 0 W/m2
04:05 12.6 °C 11.9 °C 994.8 hPa ESE 1.6 km/h 8.0 km/h 96 % 0.0 mm 0 W/m2
04:10 12.5 °C 11.9 °C 994.5 hPa ESE 4.8 km/h 8.0 km/h 96 % 0.0 mm 0 W/m2
04:15 12.4 °C 11.8 °C 994.5 hPa SE 3.2 km/h 8.0 km/h 96 % 0.0 mm 0 W/m2
04:20 12.4 °C 11.8 °C 994.1 hPa East 8.0 km/h 8.0 km/h 96 % 0.0 mm 0 W/m2
04:25 12.4 °C 11.8 °C 994.1 hPa SE 1.6 km/h 8.0 km/h 96 % 0.0 mm 0 W/m2
04:30 12.4 °C 11.8 °C 994.1 hPa ESE 3.2 km/h 9.7 km/h 96 % 0.0 mm 0 W/m2
04:35 12.4 °C 11.8 °C 993.8 hPa Calm   12.9 km/h 96 % 0.0 mm 0 W/m2
04:40 12.4 °C 11.8 °C 993.8 hPa SE 1.6 km/h 12.9 km/h 96 % 0.0 mm 0 W/m2
04:45 12.3 °C 11.7 °C 993.8 hPa SE 3.2 km/h 8.0 km/h 96 % 0.0 mm 0 W/m2
04:50 12.3 °C 11.7 °C 993.8 hPa SE 1.6 km/h 8.0 km/h 96 % 0.0 mm 0 W/m2
04:55 12.2 °C 11.6 °C 993.8 hPa SE 4.8 km/h 11.3 km/h 96 % 0.0 mm 0 W/m2
05:00 12.2 °C 11.6 °C 993.8 hPa ESE 3.2 km/h 11.3 km/h 96 % 0.0 mm 0 W/m2
05:05 12.2 °C 11.5 °C 993.5 hPa ESE 4.8 km/h 8.0 km/h 96 % 0.0 mm 0 W/m2
05:10 12.2 °C 11.5 °C 993.5 hPa East 8.0 km/h 9.7 km/h 96 % 0.0 mm 0 W/m2
05:15 12.2 °C 11.5 °C 993.5 hPa SSE 4.8 km/h 12.9 km/h 96 % 0.0 mm 0 W/m2
05:20 12.2 °C 11.5 °C 993.5 hPa SE 6.4 km/h 12.9 km/h 96 % 0.0 mm 0 W/m2
05:25 12.2 °C 11.5 °C 993.5 hPa SE 12.9 km/h 12.9 km/h 96 % 0.0 mm 0 W/m2
05:30 12.2 °C 11.6 °C 993.5 hPa SE 11.3 km/h 14.5 km/h 96 % 0.0 mm 0 W/m2
05:35 12.2 °C 11.6 °C 993.1 hPa SE 8.0 km/h 14.5 km/h 96 % 0.0 mm 0 W/m2
05:40 12.2 °C 11.6 °C 993.1 hPa ESE 4.8 km/h 12.9 km/h 96 % 0.0 mm 0 W/m2
05:45 12.2 °C 11.6 °C 993.1 hPa SE 4.8 km/h 12.9 km/h 96 % 0.0 mm 0 W/m2
05:55 12.2 °C 11.4 °C 992.8 hPa ESE 6.4 km/h 11.3 km/h 95 % 0.0 mm 0 W/m2
06:00 12.2 °C 11.4 °C 992.8 hPa Calm   11.3 km/h 95 % 0.0 mm 0 W/m2
06:05 12.2 °C 11.4 °C 992.8 hPa SE 4.8 km/h 11.3 km/h 95 % 0.0 mm 0 W/m2
06:10 12.1 °C 11.3 °C 992.8 hPa ESE 3.2 km/h 12.9 km/h 95 % 0.0 mm 0 W/m2
06:15 12.1 °C 11.3 °C 992.8 hPa Calm   12.9 km/h 95 % 0.0 mm 0 W/m2
06:20 12.1 °C 11.3 °C 992.4 hPa ESE 3.2 km/h 8.0 km/h 95 % 0.0 mm 0 W/m2
06:25 12.1 °C 11.3 °C 992.4 hPa ESE 6.4 km/h 11.3 km/h 95 % 0.0 mm 0 W/m2
06:30 12.2 °C 11.4 °C 992.4 hPa ESE 1.6 km/h 11.3 km/h 95 % 0.0 mm 0 W/m2
06:35 12.2 °C 11.4 °C 992.4 hPa SE 6.4 km/h 11.3 km/h 95 % 0.0 mm 5 W/m2
06:40 12.2 °C 11.4 °C 992.4 hPa ESE 1.6 km/h 11.3 km/h 95 % 0.0 mm 7 W/m2
06:45 12.2 °C 11.4 °C 992.4 hPa ESE 3.2 km/h 11.3 km/h 95 % 0.0 mm 11 W/m2
06:50 12.2 °C 11.3 °C 992.8 hPa SE 4.8 km/h 8.0 km/h 94 % 0.0 mm 16 W/m2
06:55 12.2 °C 11.2 °C 992.4 hPa SE 4.8 km/h 8.0 km/h 94 % 0.0 mm 19 W/m2
07:00 12.2 °C 11.3 °C 992.4 hPa SE 11.3 km/h 11.3 km/h 94 % 0.0 mm 21 W/m2
07:10 12.3 °C 11.4 °C 992.4 hPa SSE 6.4 km/h 12.9 km/h 94 % 0.0 mm 23 W/m2
07:15 12.4 °C 11.5 °C 992.4 hPa ESE 4.8 km/h 16.1 km/h 94 % 0.0 mm 21 W/m2
07:20 12.4 °C 11.3 °C 992.4 hPa ESE 3.2 km/h 16.1 km/h 93 % 0.0 mm 25 W/m2
07:25 12.4 °C 11.3 °C 992.4 hPa SE 1.6 km/h 12.9 km/h 93 % 0.0 mm 26 W/m2
07:30 12.4 °C 11.3 °C 992.4 hPa SE 9.7 km/h 14.5 km/h 93 % 0.0 mm 25 W/m2
07:35 12.5 °C 11.4 °C 992.4 hPa ESE 4.8 km/h 14.5 km/h 93 % 0.0 mm 21 W/m2
07:40 12.6 °C 11.5 °C 992.4 hPa SE 6.4 km/h 12.9 km/h 93 % 0.0 mm 19 W/m2
07:45 12.6 °C 11.3 °C 992.4 hPa SE 8.0 km/h 16.1 km/h 92 % 0.0 mm 21 W/m2
07:50 12.6 °C 11.3 °C 992.4 hPa ESE 6.4 km/h 16.1 km/h 92 % 0.0 mm 21 W/m2
07:55 12.7 °C 11.4 °C 992.8 hPa SE 3.2 km/h 16.1 km/h 92 % 0.0 mm 19 W/m2
08:00 12.7 °C 11.4 °C 992.8 hPa SE 4.8 km/h 16.1 km/h 92 % 0.0 mm 25 W/m2
08:05 12.7 °C 11.4 °C 992.8 hPa SSE 3.2 km/h 12.9 km/h 92 % 0.0 mm 28 W/m2
08:10 12.7 °C 11.5 °C 992.8 hPa SE 4.8 km/h 12.9 km/h 92 % 0.0 mm 42 W/m2
08:15 12.7 °C 11.5 °C 992.8 hPa ESE 6.4 km/h 11.3 km/h 92 % 0.0 mm 47 W/m2
08:20 12.8 °C 11.5 °C 992.8 hPa SE 9.7 km/h 11.3 km/h 92 % 0.0 mm 53 W/m2
08:25 12.9 °C 11.5 °C 992.8 hPa SSE 1.6 km/h 11.3 km/h 91 % 0.0 mm 54 W/m2
08:30 12.9 °C 11.5 °C 992.8 hPa South 3.2 km/h 12.9 km/h 91 % 0.0 mm 56 W/m2
08:35 13.0 °C 11.6 °C 992.8 hPa SE 4.8 km/h 12.9 km/h 91 % 0.0 mm 47 W/m2
08:40 13.1 °C 11.6 °C 992.8 hPa SE 4.8 km/h 11.3 km/h 91 % 0.0 mm 42 W/m2
08:45 13.1 °C 11.7 °C 992.8 hPa SE 8.0 km/h 11.3 km/h 91 % 0.0 mm 47 W/m2
08:50 13.2 °C 11.7 °C 992.8 hPa SE 1.6 km/h 14.5 km/h 91 % 0.0 mm 49 W/m2
08:55 13.3 °C 11.8 °C 992.8 hPa SSE 9.7 km/h 14.5 km/h 91 % 0.0 mm 39 W/m2
09:05 13.3 °C 11.8 °C 992.8 hPa ESE 1.6 km/h 9.7 km/h 91 % 0.0 mm 37 W/m2
09:10 13.3 °C 11.9 °C 992.8 hPa SE 3.2 km/h 9.7 km/h 91 % 0.0 mm 40 W/m2
09:15 13.4 °C 11.8 °C 992.8 hPa SSE 4.8 km/h 12.9 km/h 90 % 0.0 mm 46 W/m2
09:20 13.6 °C 12.1 °C 992.8 hPa SSE 4.8 km/h 12.9 km/h 91 % 0.0 mm 65 W/m2
09:25 13.7 °C 12.1 °C 992.8 hPa SSE 9.7 km/h 9.7 km/h 90 % 0.0 mm 46 W/m2
09:30 13.8 °C 12.2 °C 992.8 hPa SSE 3.2 km/h 11.3 km/h 90 % 0.0 mm 58 W/m2
09:35 13.9 °C 12.3 °C 992.8 hPa SE 6.4 km/h 11.3 km/h 90 % 0.0 mm 42 W/m2
09:40 13.9 °C 12.3 °C 992.8 hPa SSE 1.6 km/h 11.3 km/h 90 % 0.0 mm 12 W/m2
09:45 13.9 °C 12.3 °C 992.8 hPa SE 4.8 km/h 11.3 km/h 90 % 0.0 mm 23 W/m2
09:50 13.8 °C 12.4 °C 992.8 hPa SSE 4.8 km/h 11.3 km/h 91 % 0.3 mm 32 W/m2
09:55 13.8 °C 12.5 °C 992.8 hPa SE 1.6 km/h 9.7 km/h 92 % 0.5 mm 28 W/m2
10:00 13.7 °C 12.6 °C 992.8 hPa Calm   9.7 km/h 93 % 0.8 mm 33 W/m2
10:05 13.6 °C 12.4 °C 992.8 hPa Calm   9.7 km/h 93 % 1.0 mm 28 W/m2
10:10 13.5 °C 12.6 °C 992.8 hPa Calm   11.3 km/h 94 % 1.3 mm 28 W/m2
10:15 13.4 °C 12.4 °C 992.8 hPa Calm   11.3 km/h 94 % 1.5 mm 40 W/m2
10:20 13.4 °C 12.4 °C 992.8 hPa SSE 6.4 km/h 8.0 km/h 94 % 1.5 mm 21 W/m2
10:25 13.3 °C 12.5 °C 992.8 hPa SE 8.0 km/h 11.3 km/h 95 % 1.8 mm 37 W/m2
10:30 13.3 °C 12.5 °C 992.8 hPa ESE 8.0 km/h 11.3 km/h 95 % 1.8 mm 33 W/m2
10:35 13.3 °C 12.5 °C 992.8 hPa Calm   12.9 km/h 95 % 1.8 mm 58 W/m2
10:40 13.3 °C 12.7 °C 992.8 hPa SSE 8.0 km/h 12.9 km/h 96 % 1.8 mm 67 W/m2
10:45 13.3 °C 12.7 °C 992.8 hPa SE 1.6 km/h 12.9 km/h 96 % 2.0 mm 90 W/m2
10:50 13.4 °C 12.8 °C 992.8 hPa SE 3.2 km/h 12.9 km/h 96 % 1.8 mm 79 W/m2
10:55 13.4 °C 12.8 °C 992.8 hPa SE 6.4 km/h 11.3 km/h 96 % 1.5 mm 74 W/m2
11:05 13.4 °C 12.8 °C 992.8 hPa SSE 4.8 km/h 12.9 km/h 96 % 1.3 mm 44 W/m2
11:10 13.4 °C 12.8 °C 992.8 hPa SSE 3.2 km/h 14.5 km/h 96 % 1.3 mm 30 W/m2
11:15 13.4 °C 12.8 °C 992.8 hPa SE 4.8 km/h 14.5 km/h 96 % 1.3 mm 30 W/m2
11:20 13.4 °C 12.8 °C 992.8 hPa SSE 3.2 km/h 12.9 km/h 96 % 1.5 mm 51 W/m2
11:25 13.4 °C 12.8 °C 992.8 hPa SE 1.6 km/h 12.9 km/h 96 % 1.8 mm 62 W/m2
11:30 13.4 °C 12.8 °C 992.8 hPa SSE 14.5 km/h 14.5 km/h 96 % 2.0 mm 42 W/m2
11:35 13.4 °C 12.8 °C 992.8 hPa SE 3.2 km/h 14.5 km/h 96 % 2.3 mm 49 W/m2
11:40 13.4 °C 12.8 °C 992.8 hPa SSE 3.2 km/h 14.5 km/h 96 % 3.0 mm 100 W/m2
11:45 13.7 °C 13.2 °C 992.8 hPa ESE 1.6 km/h 9.7 km/h 97 % 3.8 mm 123 W/m2
11:50 13.7 °C 13.3 °C 992.8 hPa SE 3.2 km/h 11.3 km/h 97 % 4.1 mm 139 W/m2
11:55 13.8 °C 13.3 °C 992.8 hPa SE 8.0 km/h 11.3 km/h 97 % 3.8 mm 155 W/m2
12:00 13.8 °C 13.3 °C 992.8 hPa SE 1.6 km/h 12.9 km/h 97 % 4.1 mm 167 W/m2
12:05 13.9 °C 13.5 °C 992.8 hPa SSE 4.8 km/h 12.9 km/h 97 % 4.1 mm 144 W/m2
12:10 13.9 °C 13.5 °C 992.8 hPa SSE 8.0 km/h 17.7 km/h 97 % 3.8 mm 144 W/m2
12:15 13.9 °C 13.4 °C 992.8 hPa SSE 4.8 km/h 17.7 km/h 97 % 3.3 mm 120 W/m2
12:20 14.0 °C 13.5 °C 992.4 hPa SE 8.0 km/h 14.5 km/h 97 % 3.0 mm 160 W/m2
12:25 14.1 °C 13.4 °C 992.4 hPa SE 3.2 km/h 16.1 km/h 96 % 2.5 mm 200 W/m2
12:30 14.1 °C 13.6 °C 992.4 hPa ESE 12.9 km/h 16.1 km/h 97 % 2.5 mm 302 W/m2
12:35 14.2 °C 13.8 °C 992.4 hPa SSE 6.4 km/h 16.1 km/h 97 % 2.0 mm 218 W/m2
12:40 14.3 °C 13.6 °C 992.4 hPa SE 9.7 km/h 17.7 km/h 96 % 1.5 mm 181 W/m2
12:45 14.2 °C 13.5 °C 992.4 hPa SSE 8.0 km/h 17.7 km/h 96 % 0.5 mm 209 W/m2
12:50 14.2 °C 13.5 °C 992.8 hPa SE 11.3 km/h 16.1 km/h 96 % 0.5 mm 153 W/m2
12:55 14.1 °C 13.4 °C 992.8 hPa SSE 17.7 km/h 17.7 km/h 96 % 0.5 mm 209 W/m2
13:00 14.1 °C 13.5 °C 992.4 hPa SSE 11.3 km/h 17.7 km/h 96 % 0.5 mm 244 W/m2
13:05 14.2 °C 13.6 °C 992.8 hPa SSE 9.7 km/h 16.1 km/h 96 % 0.5 mm 255 W/m2
13:10 14.5 °C 13.9 °C 992.8 hPa South 6.4 km/h 16.1 km/h 96 % 0.5 mm 183 W/m2
13:15 14.5 °C 13.9 °C 992.8 hPa South 8.0 km/h 12.9 km/h 96 % 0.5 mm 236 W/m2
13:20 14.4 °C 13.8 °C 992.8 hPa South 6.4 km/h 19.3 km/h 96 % 0.5 mm 137 W/m2
13:25 14.4 °C 13.6 °C 992.8 hPa SSE 4.8 km/h 19.3 km/h 95 % 0.5 mm 125 W/m2
13:30 14.4 °C 13.8 °C 992.8 hPa SSW 4.8 km/h 16.1 km/h 96 % 0.3 mm 362 W/m2
13:35 14.6 °C 13.8 °C 992.8 hPa South 4.8 km/h 20.9 km/h 95 % 0.3 mm 230 W/m2
13:40 14.7 °C 13.9 °C 992.8 hPa SSW 11.3 km/h 20.9 km/h 95 % 0.3 mm 229 W/m2
13:45 14.7 °C 13.9 °C 992.8 hPa South 11.3 km/h 19.3 km/h 95 % 0.3 mm 348 W/m2
13:50 14.8 °C 14.0 °C 992.8 hPa South 11.3 km/h 20.9 km/h 95 % 0.0 mm 334 W/m2
13:55 15.1 °C 14.3 °C 992.8 hPa South 9.7 km/h 20.9 km/h 95 % 0.0 mm 424 W/m2
14:00 15.3 °C 14.5 °C 992.8 hPa SSE 1.6 km/h 14.5 km/h 95 % 0.0 mm 504 W/m2
14:05 15.7 °C 14.9 °C 992.8 hPa South 8.0 km/h 12.9 km/h 95 % 0.0 mm 475 W/m2
14:10 15.9 °C 15.0 °C 992.8 hPa SSW 12.9 km/h 12.9 km/h 94 % 0.0 mm 207 W/m2
14:15 15.6 °C 14.5 °C 992.8 hPa SSW 8.0 km/h 17.7 km/h 93 % 0.0 mm 297 W/m2
14:20 15.7 °C 14.6 °C 992.8 hPa SSE 9.7 km/h 17.7 km/h 93 % 0.0 mm 295 W/m2
14:25 15.7 °C 14.8 °C 992.8 hPa SSE 6.4 km/h 16.1 km/h 94 % 0.0 mm 359 W/m2
14:30 15.8 °C 14.6 °C 992.8 hPa SSW 8.0 km/h 16.1 km/h 93 % 0.0 mm 163 W/m2
14:35 15.6 °C 14.3 °C 992.8 hPa South 11.3 km/h 17.7 km/h 92 % 0.0 mm 207 W/m2
14:40 15.4 °C 14.3 °C 992.8 hPa SSW 12.9 km/h 17.7 km/h 93 % 0.0 mm 151 W/m2
14:45 15.3 °C 14.2 °C 992.8 hPa SSW 8.0 km/h 17.7 km/h 93 % 0.0 mm 213 W/m2
14:50 15.5 °C 14.4 °C 992.8 hPa WSW 4.8 km/h 17.7 km/h 93 % 0.0 mm 311 W/m2
14:55 15.7 °C 14.8 °C 992.8 hPa SSW 3.2 km/h 14.5 km/h 94 % 0.0 mm 281 W/m2
15:00 15.8 °C 14.7 °C 992.8 hPa SSW 6.4 km/h 17.7 km/h 93 % 0.0 mm 297 W/m2
15:05 15.8 °C 14.7 °C 992.8 hPa South 8.0 km/h 17.7 km/h 93 % 0.0 mm 362 W/m2
15:10 16.0 °C 14.7 °C 992.8 hPa SSW 11.3 km/h 16.1 km/h 92 % 0.0 mm 385 W/m2
15:15 16.0 °C 14.7 °C 992.8 hPa SW 8.0 km/h 14.5 km/h 92 % 0.0 mm 299 W/m2
15:20 15.9 °C 14.6 °C 992.8 hPa SSW 1.6 km/h 16.1 km/h 92 % 0.0 mm 271 W/m2
15:25 16.0 °C 14.7 °C 993.1 hPa SW 11.3 km/h 16.1 km/h 92 % 0.0 mm 199 W/m2
15:30 15.8 °C 14.5 °C 993.1 hPa WSW 8.0 km/h 16.1 km/h 92 % 0.0 mm 216 W/m2
15:35 15.8 °C 14.7 °C 993.1 hPa West 9.7 km/h 17.7 km/h 93 % 0.0 mm 436 W/m2
15:40 16.1 °C 14.9 °C 993.1 hPa WSW 8.0 km/h 17.7 km/h 93 % 0.0 mm 547 W/m2
15:45 16.2 °C 14.9 °C 993.1 hPa SSW 4.8 km/h 16.1 km/h 92 % 0.0 mm 591 W/m2
15:50 16.7 °C 15.4 °C 993.1 hPa SSW 11.3 km/h 19.3 km/h 92 % 0.0 mm 663 W/m2
15:55 16.7 °C 15.0 °C 993.1 hPa West 9.7 km/h 24.1 km/h 90 % 0.0 mm 911 W/m2
16:00 16.7 °C 14.8 °C 993.1 hPa WNW 3.2 km/h 24.1 km/h 89 % 0.0 mm 777 W/m2
16:05 16.7 °C 14.8 °C 993.1 hPa WSW 14.5 km/h 20.9 km/h 89 % 0.0 mm 548 W/m2
16:10 16.3 °C 14.7 °C 993.1 hPa West 19.3 km/h 22.5 km/h 90 % 0.0 mm 508 W/m2
16:15 16.4 °C 14.7 °C 993.5 hPa NW 9.7 km/h 22.5 km/h 90 % 0.0 mm 745 W/m2
16:20 16.2 °C 14.6 °C 993.5 hPa WSW 8.0 km/h 20.9 km/h 90 % 0.0 mm 682 W/m2
16:25 16.4 °C 14.6 °C 993.5 hPa WNW 14.5 km/h 19.3 km/h 89 % 0.0 mm 793 W/m2
16:30 16.5 °C 14.7 °C 993.5 hPa WSW 19.3 km/h 24.1 km/h 89 % 0.0 mm 780 W/m2
16:35 16.5 °C 14.9 °C 993.5 hPa WSW 24.1 km/h 24.1 km/h 90 % 0.0 mm 846 W/m2
16:40 16.3 °C 14.3 °C 993.5 hPa West 9.7 km/h 24.1 km/h 88 % 0.0 mm 390 W/m2
16:45 16.2 °C 14.5 °C 993.5 hPa WSW 8.0 km/h 24.1 km/h 90 % 0.0 mm 568 W/m2
16:50 16.2 °C 14.2 °C 993.5 hPa SW 14.5 km/h 22.5 km/h 88 % 0.0 mm 628 W/m2
16:55 15.9 °C 14.1 °C 993.5 hPa WNW 12.9 km/h 24.1 km/h 89 % 0.0 mm 533 W/m2
17:00 16.0 °C 14.2 °C 993.5 hPa WSW 17.7 km/h 24.1 km/h 89 % 0.0 mm 654 W/m2
17:05 15.8 °C 14.2 °C 993.8 hPa WSW 8.0 km/h 20.9 km/h 90 % 0.0 mm 522 W/m2
17:10 15.9 °C 14.3 °C 993.8 hPa WSW 17.7 km/h 20.9 km/h 90 % 0.0 mm 596 W/m2
17:15 15.8 °C 14.1 °C 993.8 hPa West 6.4 km/h 22.5 km/h 90 % 0.0 mm 455 W/m2
17:20 15.9 °C 14.3 °C 993.8 hPa West 14.5 km/h 22.5 km/h 90 % 0.0 mm 425 W/m2
17:25 15.6 °C 14.0 °C 993.8 hPa WSW 17.7 km/h 20.9 km/h 90 % 0.0 mm 417 W/m2
17:35 15.6 °C 13.9 °C 993.8 hPa WSW 24.1 km/h 24.1 km/h 90 % 0.0 mm 612 W/m2
17:40 15.7 °C 14.0 °C 994.1 hPa WSW 8.0 km/h 24.1 km/h 90 % 0.0 mm 364 W/m2
17:45 15.9 °C 14.3 °C 993.8 hPa SW 12.9 km/h 24.1 km/h 90 % 0.0 mm 568 W/m2
17:50 16.0 °C 14.2 °C 993.8 hPa WSW 8.0 km/h 20.9 km/h 89 % 0.0 mm 513 W/m2
17:55 16.2 °C 14.6 °C 993.8 hPa West 6.4 km/h 20.9 km/h 90 % 0.0 mm 540 W/m2
18:00 16.1 °C 14.5 °C 993.8 hPa WSW 16.1 km/h 20.9 km/h 90 % 0.0 mm 510 W/m2
18:05 15.9 °C 14.1 °C 993.8 hPa WSW 3.2 km/h 19.3 km/h 89 % 0.0 mm 487 W/m2
18:10 15.9 °C 14.1 °C 993.8 hPa East 3.2 km/h 19.3 km/h 89 % 0.0 mm 492 W/m2
18:15 16.0 °C 14.4 °C 994.1 hPa SSW 11.3 km/h 16.1 km/h 90 % 0.0 mm 473 W/m2
18:20 15.8 °C 13.8 °C 994.1 hPa SW 9.7 km/h 16.1 km/h 88 % 0.0 mm 459 W/m2
18:25 15.7 °C 13.9 °C 994.1 hPa SW 4.8 km/h 17.7 km/h 89 % 0.0 mm 445 W/m2
18:30 15.7 °C 13.9 °C 993.8 hPa SW 3.2 km/h 17.7 km/h 89 % 0.0 mm 429 W/m2
18:35 15.7 °C 14.0 °C 994.1 hPa SSW 8.0 km/h 16.1 km/h 90 % 0.0 mm 413 W/m2
18:40 15.7 °C 13.9 °C 993.8 hPa SW 8.0 km/h 16.1 km/h 89 % 0.0 mm 399 W/m2
18:45 15.7 °C 13.9 °C 994.1 hPa SW 4.8 km/h 16.1 km/h 89 % 0.0 mm 383 W/m2
18:50 15.9 °C 14.0 °C 994.1 hPa South 3.2 km/h 14.5 km/h 88 % 0.0 mm 367 W/m2
18:55 15.9 °C 13.8 °C 994.1 hPa WSW 3.2 km/h 17.7 km/h 87 % 0.0 mm 353 W/m2
19:00 16.0 °C 14.2 °C 994.1 hPa SW 3.2 km/h 17.7 km/h 89 % 0.0 mm 345 W/m2
19:10 15.9 °C 14.0 °C 993.8 hPa SSW 3.2 km/h 11.3 km/h 88 % 0.0 mm 311 W/m2
19:15 15.9 °C 13.9 °C 993.8 hPa SSW 3.2 km/h 12.9 km/h 88 % 0.0 mm 295 W/m2
19:20 15.7 °C 13.6 °C 994.1 hPa WSW 12.9 km/h 17.7 km/h 87 % 0.0 mm 281 W/m2
19:25 15.4 °C 13.6 °C 994.1 hPa SSW 6.4 km/h 17.7 km/h 89 % 0.0 mm 269 W/m2
19:30 15.7 °C 13.9 °C 994.1 hPa South 3.2 km/h 14.5 km/h 89 % 0.0 mm 255 W/m2
19:35 15.6 °C 13.6 °C 994.1 hPa WSW 4.8 km/h 16.1 km/h 88 % 0.0 mm 260 W/m2
19:40 15.3 °C 13.3 °C 994.1 hPa SSW 8.0 km/h 17.7 km/h 88 % 0.0 mm 257 W/m2
19:45 15.3 °C 13.4 °C 994.1 hPa WSW 6.4 km/h 17.7 km/h 88 % 0.0 mm 207 W/m2
19:50 15.4 °C 13.4 °C 994.1 hPa WSW 9.7 km/h 14.5 km/h 88 % 0.0 mm 209 W/m2
19:55 15.3 °C 13.4 °C 994.1 hPa SSW 3.2 km/h 14.5 km/h 88 % 0.0 mm 195 W/m2
20:00 15.4 °C 13.2 °C 994.1 hPa South 3.2 km/h 14.5 km/h 87 % 0.0 mm 178 W/m2
20:05 15.4 °C 13.5 °C 994.1 hPa SSW 9.7 km/h 14.5 km/h 88 % 0.0 mm 156 W/m2
20:10 15.4 °C 13.2 °C 994.1 hPa South 1.6 km/h 14.5 km/h 87 % 0.0 mm 128 W/m2
20:15 15.3 °C 13.0 °C 994.1 hPa South 4.8 km/h 17.7 km/h 86 % 0.0 mm 120 W/m2
20:20 15.2 °C 13.1 °C 994.1 hPa SSW 12.9 km/h 17.7 km/h 87 % 0.0 mm 86 W/m2
20:25 15.2 °C 13.0 °C 994.1 hPa SW 6.4 km/h 19.3 km/h 87 % 0.0 mm 35 W/m2
20:30 15.0 °C 12.9 °C 994.5 hPa WSW 6.4 km/h 19.3 km/h 87 % 0.0 mm 26 W/m2
20:35 14.8 °C 12.8 °C 994.1 hPa SSW 9.7 km/h 16.1 km/h 88 % 0.0 mm 42 W/m2
20:40 14.7 °C 12.9 °C 994.5 hPa SW 8.0 km/h 14.5 km/h 89 % 0.0 mm 40 W/m2
20:45 14.8 °C 13.0 °C 994.5 hPa SSW 4.8 km/h 14.5 km/h 89 % 0.0 mm 32 W/m2
20:50 14.8 °C 13.0 °C 994.5 hPa SSW 3.2 km/h 14.5 km/h 89 % 0.0 mm 35 W/m2
20:55 14.7 °C 12.9 °C 994.5 hPa SW 6.4 km/h 14.5 km/h 89 % 0.0 mm 19 W/m2
21:00 14.7 °C 12.9 °C 994.5 hPa South 8.0 km/h 12.9 km/h 89 % 0.0 mm 23 W/m2
21:05 14.5 °C 12.9 °C 994.5 hPa South 9.7 km/h 14.5 km/h 90 % 0.0 mm 28 W/m2
21:10 14.5 °C 12.9 °C 994.8 hPa South 4.8 km/h 14.5 km/h 90 % 0.0 mm 16 W/m2
21:15 14.6 °C 12.8 °C 994.8 hPa South 11.3 km/h 20.9 km/h 89 % 0.0 mm 11 W/m2
21:20 14.6 °C 12.8 °C 994.8 hPa South 11.3 km/h 20.9 km/h 89 % 0.0 mm 5 W/m2
21:25 14.6 °C 12.8 °C 994.8 hPa SSW 6.4 km/h 19.3 km/h 89 % 0.0 mm 0 W/m2
21:30 14.6 °C 12.8 °C 994.8 hPa SSW 8.0 km/h 16.1 km/h 89 % 0.0 mm 0 W/m2
21:35 14.6 °C 12.9 °C 994.8 hPa South 12.9 km/h 16.1 km/h 90 % 0.0 mm 0 W/m2
21:40 14.6 °C 12.9 °C 994.8 hPa SSW 8.0 km/h 16.1 km/h 90 % 0.0 mm 0 W/m2
21:45 14.6 °C 12.9 °C 995.1 hPa SSW 9.7 km/h 14.5 km/h 90 % 0.0 mm 0 W/m2
21:50 14.4 °C 12.8 °C 995.1 hPa WSW 8.0 km/h 17.7 km/h 90 % 0.0 mm 0 W/m2
21:55 14.4 °C 12.8 °C 995.1 hPa SSW 6.4 km/h 17.7 km/h 90 % 0.0 mm 0 W/m2
22:00 14.4 °C 12.8 °C 995.1 hPa SSW 16.1 km/h 17.7 km/h 90 % 0.0 mm 0 W/m2
22:05 14.4 °C 12.8 °C 995.5 hPa South 6.4 km/h 16.1 km/h 90 % 0.0 mm 0 W/m2
22:10 14.3 °C 12.7 °C 995.5 hPa SW 6.4 km/h 16.1 km/h 90 % 0.0 mm 0 W/m2
22:15 14.2 °C 12.7 °C 995.1 hPa SSE 4.8 km/h 16.1 km/h 91 % 0.0 mm 0 W/m2
22:20 14.1 °C 12.6 °C 995.5 hPa SSW 11.3 km/h 16.1 km/h 91 % 0.0 mm 0 W/m2
22:25 14.0 °C 12.7 °C 995.5 hPa SSW 8.0 km/h 16.1 km/h 92 % 0.0 mm 0 W/m2
22:30 13.9 °C 12.7 °C 995.5 hPa SSW 8.0 km/h 16.1 km/h 92 % 0.0 mm 0 W/m2
22:35 13.9 °C 12.6 °C 995.8 hPa SW 4.8 km/h 19.3 km/h 92 % 0.0 mm 0 W/m2
22:40 13.8 °C 12.6 °C 995.8 hPa South 11.3 km/h 19.3 km/h 92 % 0.0 mm 0 W/m2
22:45 13.9 °C 12.8 °C 995.8 hPa South 11.3 km/h 14.5 km/h 93 % 0.0 mm 0 W/m2
22:50 13.9 °C 12.8 °C 995.8 hPa South 3.2 km/h 14.5 km/h 93 % 0.0 mm 0 W/m2
22:55 13.9 °C 12.8 °C 995.8 hPa SSW 11.3 km/h 16.1 km/h 93 % 0.0 mm 0 W/m2
23:00 13.8 °C 12.7 °C 995.8 hPa SE 6.4 km/h 16.1 km/h 93 % 0.0 mm 0 W/m2
23:05 13.8 °C 12.7 °C 995.8 hPa SSW 9.7 km/h 16.1 km/h 93 % 0.0 mm 0 W/m2
23:10 13.7 °C 12.6 °C 995.8 hPa SSW 6.4 km/h 16.1 km/h 93 % 0.0 mm 0 W/m2
23:15 13.7 °C 12.6 °C 995.8 hPa South 6.4 km/h 16.1 km/h 93 % 0.0 mm 0 W/m2
23:20 13.6 °C 12.5 °C 995.8 hPa South 6.4 km/h 17.7 km/h 93 % 0.0 mm 0 W/m2
23:25 13.6 °C 12.4 °C 995.8 hPa SSW 8.0 km/h 17.7 km/h 93 % 0.0 mm 0 W/m2
23:30 13.6 °C 12.5 °C 996.2 hPa SSW 11.3 km/h 16.1 km/h 93 % 0.0 mm 0 W/m2
23:35 13.6 °C 12.5 °C 996.2 hPa SSW 4.8 km/h 17.7 km/h 93 % 0.0 mm 0 W/m2
23:40 13.7 °C 12.7 °C 996.2 hPa SSW 8.0 km/h 19.3 km/h 94 % 0.0 mm 0 W/m2
23:45 13.7 °C 12.7 °C 995.8 hPa SSW 11.3 km/h 19.3 km/h 94 % 0.0 mm 0 W/m2
23:50 13.7 °C 12.7 °C 995.8 hPa SSW 6.4 km/h 17.7 km/h 94 % 0.0 mm 0 W/m2
23:55 13.6 °C 12.7 °C 995.8 hPa South 6.4 km/h 19.3 km/h 94 % 0.0 mm 0 W/m2
Avec l'autorisation de Weather Underground - 1.75 mb